Wind_Speed
32 33 35 37 36 36 37 35 34 33 28 24 22 21 21 20 19 19 18 17 16 16 15 16 16 15 15 17 19 21 22 23 24 24 24 24 23 23 22 23 25 25 25 25 25 26 27 28 28 27 28 28 29 29 28 28 28 27 26 25 26 27 26
33 34 36 37 37 38 37 36 35 32 27 25 24 23 22 21 19 17 16 15 15 16 16 16 15 15 16 19 22 23 24 24 24 24 23 23 22 22 23 24 26 27 27 28 29 30 30 30 29 29 29 30 30 30 29 29 28 27 27 26 27 28 28
33 36 37 38 39 39 38 36 34 31 28 26 25 24 23 20 17 15 13 13 14 15 16 16 16 17 19 21 23 24 25 25 25 24 24 24 24 24 25 26 28 29 30 31 32 32 32 30 30 29 30 30 31 31 30 30 29 29 28 27 27 28 29
35 38 38 39 40 40 38 35 33 31 30 28 27 26 21 17 15 13 12 13 14 16 17 17 18 18 20 22 23 24 25 26 27 28 28 28 28 29 29 29 30 31 32 32 33 33 32 31 30 30 31 32 32 32 31 31 31 31 30 29 28 28 29
37 38 39 40 41 40 37 35 33 33 33 33 30 24 18 15 14 13 13 15 16 17 18 18 19 21 22 23 23 24 25 26 29 31 32 32 32 33 33 33 33 33 33 33 33 33 32 32 31 31 32 34 34 33 32 32 32 32 31 30 30 30 30
36 38 39 39 40 39 38 36 34 34 35 32 26 20 17 15 14 14 15 17 18 19 19 19 21 23 24 24 24 25 26 28 30 32 34 35 35 35 35 36 35 35 34 34 34 33 33 32 32 33 33 33 33 32 32 32 32 32 31 31 30 31 30
38 38 38 38 39 39 38 36 34 34 32 27 21 19 19 16 15 16 18 19 20 19 19 20 22 23 24 24 26 28 29 31 33 34 35 36 37 37 36 37 37 36 35 35 34 33 31 31 32 33 33 33 33 32 31 31 31 31 31 31 31 31 30
38 37 36 37 38 37 36 35 35 33 30 26 22 20 20 19 19 19 20 20 20 20 20 21 22 23 25 27 29 30 32 34 36 36 36 37 37 37 37 37 37 37 36 35 34 33 31 30 31 31 32 32 32 31 31 31 31 31 31 31 31 30 30
37 36 36 37 37 35 34 35 36 33 28 25 23 20 20 22 22 21 21 20 19 19 20 21 22 24 26 28 30 32 33 35 37 37 36 36 36 36 36 36 36 36 36 35 34 33 32 31 30 31 32 32 32 31 30 30 31 31 31 31 31 30 30
37 37 36 36 35 34 34 34 34 30 26 25 23 21 22 24 23 21 21 20 19 20 21 22 24 26 28 30 31 32 33 35 36 36 35 34 34 35 35 35 35 35 36 35 34 33 33 32 31 31 32 33 33 32 31 31 31 31 31 31 31 30 30
36 35 34 34 34 33 33 33 31 28 25 24 23 23 23 23 22 21 22 22 22 22 24 25 27 28 30 30 31 31 32 33 34 33 32 32 32 33 34 35 35 36 36 36 35 34 34 34 33 33 33 33 33 33 32 32 31 31 31 31 31 31 31
33 33 32 33 34 33 33 32 28 26 25 24 25 26 25 22 21 22 24 24 26 26 27 29 29 30 30 30 30 30 30 31 31 31 31 31 31 32 34 35 36 36 37 37 36 35 34 34 34 33 33 32 32 32 32 31 31 31 30 30 30 31 31
31 32 32 33 34 32 31 29 26 25 25 26 27 27 25 23 23 25 26 27 29 30 30 31 31 31 30 30 29 28 29 31 32 32 32 32 32 32 33 34 35 36 36 36 36 35 34 34 33 33 32 31 31 31 30 30 30 30 29 29 29 29 30
30 31 32 33 32 30 29 27 26 25 26 27 28 27 26 26 27 28 29 30 31 31 31 31 31 30 30 29 29 28 29 31 33 34 34 33 33 33 33 33 33 33 33 34 34 33 32 31 31 31 30 29 28 28 28 28 27 27 27 27 27 27 28
29 31 31 30 29 28 27 26 26 27 27 27 27 27 27 28 29 30 31 32 32 31 31 30 29 29 28 29 29 30 31 32 33 34 34 33 33 32 31 30 30 30 30 30 30 30 29 28 27 27 26 25 25 25 25 25 25 25 25 25 26 25 26
29 29 28 27 26 25 24 25 25 26 26 27 27 28 29 30 31 32 32 32 31 30 29 28 27 28 29 30 30 31 31 32 33 32 32 31 30 28 28 27 26 26 26 26 25 25 24 23 23 22 22 21 22 22 23 23 24 24 24 24 25 25 25
28 27 26 25 24 23 23 23 24 24 25 26 27 29 31 32 32 32 32 31 30 28 27 26 27 29 30 31 31 31 31 31 30 29 28 27 26 25 25 24 24 24 24 24 23 22 21 20 19 19 19 19 20 21 22 22 23 23 23 23 24 24 24
26 25 24 23 23 23 23 23 23 23 24 26 28 31 32 32 32 31 30 29 27 26 26 27 29 30 31 31 31 31 29 27 26 26 26 26 25 25 24 24 23 23 22 22 21 20 20 19 18 18 18 18 19 19 20 21 22 22 22 22 23 23 23
23 23 23 23 23 23 23 23 23 24 25 27 30 31 31 31 31 29 28 26 25 25 27 29 30 30 30 31 30 28 26 25 25 25 26 26 25 24 24 23 22 21 21 21 20 19 19 18 18 17 17 17 17 18 19 19 20 21 21 21 21 21 21
22 22 23 23 22 22 22 23 24 25 27 29 30 30 30 29 28 26 24 24 25 27 29 29 30 30 29 28 26 25 24 24 25 25 24 24 24 23 22 21 21 20 20 20 19 19 19 18 18 17 17 16 17 17 17 18 18 18 19 19 19 19 19
22 23 23 21 21 21 22 23 25 27 28 29 29 29 28 26 24 23 24 25 28 29 29 29 29 28 26 25 24 24 24 24 23 23 22 22 22 21 21 20 20 20 20 19 19 19 18 18 18 17 16 16 16 16 16 16 16 17 17 17 18 18 18
23 23 21 20 20 21 23 25 27 28 28 28 27 27 25 24 23 24 26 27 28 29 29 28 26 24 23 23 23 23 23 23 22 22 21 21 21 21 21 20 20 19 19 19 19 18 18 18 17 17 16 16 16 16 16 16 16 16 16 16 16 16 16
23 21 19 19 20 22 25 27 28 28 27 26 26 25 24 24 24 26 27 27 27 27 26 24 22 22 22 22 22 22 22 22 21 21 21 20 20 20 20 20 19 19 19 19 18 18 18 17 17 17 16 16 16 16 16 16 16 16 16 16 16 15 15
21 19 19 20 22 25 28 28 28 27 26 25 25 24 24 25 25 26 26 26 26 25 23 21 21 22 22 22 22 22 21 21 20 20 20 20 20 20 20 20 19 19 19 19 18 18 18 17 17 17 17 16 16 16 16 16 17 17 17 17 17 16 16
20 19 20 22 25 27 28 27 26 26 25 24 24 24 25 25 25 25 25 25 24 22 20 21 21 21 21 22 22 21 21 20 20 20 20 20 20 20 20 20 19 19 19 19 19 18 18 18 17 17 17 17 17 17 17 16 17 17 17 17 17 17 17
19 20 22 25 27 27 26 26 25 25 24 24 25 25 25 24 24 24 24 23 21 20 20 20 21 21 22 22 21 20 20 20 20 20 20 20 20 20 20 20 20 19 19 19 19 18 18 18 18 17 17 17 17 17 17 17 17 17 18 18 18 18 18
18 21 24 26 26 25 25 25 25 25 25 26 26 26 24 23 23 23 22 20 19 19 20 20 21 21 21 21 20 20 20 20 20 20 20 20 20 20 20 20 20 19 19 18 18 18 18 18 17 17 17 17 17 17 17 17 17 18 18 19 19 19 19
19 22 24 25 24 24 24 24 25 26 26 25 25 24 23 22 21 20 19 18 18 19 19 20 20 20 20 19 20 20 20 20 20 20 20 20 20 20 20 20 20 20 19 19 19 18 18 18 18 17 17 17 17 17 17 18 18 19 19 20 20 20 20
21 23 23 23 22 22 23 24 25 24 24 24 24 23 22 20 18 17 17 17 18 19 19 20 19 18 18 19 19 19 19 20 20 20 20 20 20 20 20 20 20 20 20 20 19 19 19 18 18 18 18 18 18 19 19 19 19 19 19 19 20 20 21
22 22 22 21 21 21 23 24 24 24 24 24 23 21 20 17 16 16 17 18 19 19 19 18 18 18 18 19 19 19 19 19 20 20 21 21 21 21 21 21 21 21 21 20 20 19 19 19 19 19 19 18 18 18 18 18 17 17 17 18 18 18 18
21 21 21 21 22 22 23 24 24 24 24 22 20 18 16 15 15 16 17 18 19 19 18 17 17 18 18 19 19 19 19 19 20 21 21 22 22 22 22 22 22 22 22 21 21 21 20 20 19 19 19 18 18 18 18 17 17 17 17 18 18 18 17
20 20 21 22 23 23 24 25 24 24 22 19 17 15 14 14 15 17 17 18 18 17 17 17 18 18 18 19 19 18 19 19 20 21 22 23 23 23 23 23 22 22 23 23 23 22 22 21 20 19 18 18 17 17 17 17 18 18 19 19 19 19 18
20 21 22 23 23 24 24 24 23 22 20 17 15 14 13 14 15 16 17 17 16 16 16 17 18 18 18 18 18 17 18 19 21 22 23 24 24 24 24 24 23 23 23 23 23 23 23 23 22 20 19 18 18 17 17 17 18 19 19 20 20 19 19
20 22 22 23 24 24 24 23 21 19 18 16 15 14 14 14 15 16 16 15 15 16 16 17 17 18 18 17 16 17 18 20 21 23 24 24 24 24 24 24 24 24 24 24 24 24 24 24 24 22 20 18 17 18 18 18 18 19 20 20 20 20 19
20 21 22 23 24 24 22 21 19 18 16 15 14 14 14 14 15 15 15 15 15 16 17 17 17 16 16 16 16 17 19 20 21 22 23 24 24 24 24 24 24 24 24 25 25 25 25 25 24 23 21 18 17 17 18 19 18 19 19 20 20 20 19
20 21 21 22 23 22 20 19 17 16 15 14 14 15 15 15 15 15 15 15 16 16 17 17 16 16 16 16 17 18 19 20 22 23 23 24 24 24 24 24 24 24 25 25 25 25 26 25 24 23 22 20 19 19 20 21 20 19 19 19 19 19 19
20 20 21 21 21 19 17 16 15 14 14 14 14 15 15 15 15 16 16 15 16 16 16 16 16 17 17 17 18 19 21 22 23 23 24 24 25 25 25 25 24 24 25 26 26 26 26 25 23 22 22 21 21 22 23 23 22 22 21 20 19 18 18
20 19 19 19 18 16 15 15 14 14 14 14 14 14 15 15 15 16 16 15 15 16 16 16 16 17 17 18 19 21 22 22 23 24 24 24 24 25 25 25 25 25 25 25 26 26 26 25 23 22 22 21 22 22 23 23 23 23 22 22 21 20 19
Wind_Direction
330 332 335 336 337 336 336 337 335 333 333 333 331 323 316 311 306 305 302 298 295 293 290 288 288 288 288 292 295 296 297 297 297 298 298 299 299 299 296 292 290 289 289 288 287 287 290 292 292 290 288 285 283 282 281 280 280 280 279 278 277 277 275
329 330 332 333 334 334 334 335 335 335 335 333 328 321 315 309 306 305 302 301 297 293 292 290 288 287 288 292 297 299 300 299 299 299 299 301 301 299 295 291 289 289 289 289 288 288 290 291 291 290 287 285 284 284 283 282 281 281 279 277 274 274 274
328 328 329 329 329 330 331 332 334 335 333 329 324 319 313 308 309 310 309 308 301 295 295 292 289 287 288 294 298 301 303 302 302 301 300 301 301 299 296 293 291 290 290 290 290 289 290 291 291 289 286 284 283 283 283 283 282 281 279 276 273 272 273
325 325 325 324 325 327 329 329 331 331 327 324 320 318 315 314 316 315 311 308 303 299 299 297 292 289 290 295 299 304 305 304 304 302 301 303 303 301 298 295 293 292 291 291 290 290 291 291 290 287 285 283 282 282 282 281 280 279 278 276 273 270 271
322 322 322 322 322 325 326 327 328 326 324 324 321 318 319 322 321 316 309 304 302 302 302 299 294 292 294 297 301 305 306 305 304 303 303 304 304 303 300 298 296 295 293 292 292 292 292 291 289 286 284 283 282 282 281 279 279 278 277 275 273 271 271
320 319 319 320 320 323 325 326 326 325 325 326 323 322 327 325 319 313 307 304 304 305 302 297 293 293 295 299 303 307 307 304 303 302 304 304 304 303 301 299 297 296 295 293 293 294 294 292 289 287 285 283 282 281 280 278 278 277 276 274 273 272 272
319 318 319 320 320 322 325 325 325 325 325 325 323 325 326 321 314 310 307 307 307 305 300 296 295 297 299 303 307 308 306 304 303 304 305 304 302 301 299 298 297 296 295 294 293 293 293 291 289 288 286 283 282 282 280 279 277 276 275 274 273 272 272
317 318 319 319 320 323 325 323 323 324 324 324 326 326 322 318 316 313 311 311 309 305 301 299 300 302 304 306 306 306 305 304 304 304 303 301 300 299 298 298 297 297 296 295 295 294 292 291 289 287 285 283 282 282 280 279 277 275 274 273 272 271 270
314 315 316 317 319 322 321 319 319 320 320 322 325 326 321 319 318 316 317 316 310 305 302 301 302 303 304 304 304 304 304 302 300 300 299 299 299 299 299 299 298 297 296 295 295 294 293 291 289 286 284 283 282 281 279 278 277 276 274 272 271 269 267
311 312 312 314 317 318 318 317 318 317 317 321 325 324 322 321 318 318 320 317 310 306 304 302 302 303 303 303 303 302 300 298 298 298 300 301 302 301 301 300 299 298 296 296 296 295 293 291 288 286 284 283 283 281 279 278 276 275 274 273 271 269 266
310 311 312 314 315 317 317 317 317 315 316 323 326 324 323 321 317 316 318 315 312 310 308 306 305 304 304 303 303 302 301 300 300 301 303 304 303 302 301 299 298 297 295 295 294 293 292 289 287 285 284 283 282 280 278 277 276 274 273 272 271 268 266
310 311 314 315 315 317 318 317 316 314 317 324 326 323 323 321 316 316 318 317 315 313 310 308 307 306 306 306 306 306 305 304 304 304 305 304 302 300 299 298 297 295 294 293 292 291 290 288 286 285 283 282 280 278 277 275 274 273 272 271 269 267 266
311 313 315 315 316 318 319 317 316 316 320 324 324 323 324 322 319 319 318 316 314 313 311 310 310 310 311 311 312 312 310 308 307 306 306 304 302 300 298 297 296 295 295 294 292 290 288 287 286 285 283 282 280 278 277 275 274 273 272 270 268 267 266
312 314 315 316 317 319 319 318 318 319 322 323 323 323 324 321 319 318 316 314 313 313 313 313 314 314 315 315 316 315 312 309 307 307 307 306 304 302 300 299 297 296 295 294 293 290 288 286 286 285 283 282 281 281 279 278 276 275 273 272 271 269 268
315 315 315 317 319 320 319 319 321 321 321 321 322 322 320 319 317 315 315 314 314 314 315 316 317 317 316 317 316 315 312 310 309 309 309 308 307 305 304 303 301 299 298 296 295 293 291 288 286 285 284 283 283 283 282 281 280 278 276 275 274 272 271
315 315 317 319 320 319 318 319 319 318 316 317 319 318 317 316 315 315 315 315 316 316 317 318 318 317 317 317 316 315 314 312 311 311 311 310 311 311 311 310 308 306 304 303 301 299 297 294 290 288 285 283 283 283 283 283 282 280 279 277 277 276 275
315 317 318 319 320 318 316 316 314 313 314 316 316 316 315 315 315 315 316 316 316 317 318 319 319 318 318 318 318 317 315 314 314 315 315 316 317 318 317 316 315 313 310 309 307 306 304 302 298 294 289 286 284 284 285 286 285 283 281 280 279 279 278
319 320 317 317 319 317 315 314 314 315 317 317 315 315 314 314 315 315 315 315 316 317 319 320 320 320 320 320 319 318 318 318 319 319 319 319 319 319 318 318 317 316 314 311 310 309 309 308 306 302 297 292 290 288 287 288 288 287 285 283 282 281 280
322 322 317 315 317 317 315 316 317 319 318 316 315 314 313 313 314 314 314 315 317 320 322 322 322 322 321 320 320 322 324 324 323 322 322 321 321 320 319 318 318 317 316 314 314 312 311 310 308 306 302 299 296 294 292 290 289 289 288 286 285 283 282
321 322 318 316 317 317 317 317 319 319 317 315 314 313 313 314 314 314 316 319 322 323 324 323 322 322 322 324 326 328 328 327 327 327 327 326 326 325 323 321 320 320 319 319 318 315 312 310 309 307 305 303 301 299 297 295 293 292 291 289 287 285 283
320 321 319 317 316 316 316 317 318 318 317 316 315 314 315 316 317 319 322 323 324 324 324 324 324 325 328 330 330 330 330 330 331 332 331 330 329 328 326 326 324 323 323 322 321 318 315 313 311 309 307 305 304 302 301 300 299 297 297 295 293 290 286
320 320 319 316 315 315 317 318 319 319 319 317 317 318 319 320 321 323 324 324 325 324 325 326 328 331 333 332 332 332 333 333 334 333 332 332 331 330 331 331 330 328 326 324 322 321 318 316 314 311 308 306 305 304 304 304 303 302 300 300 298 296 293
319 320 319 317 317 318 320 321 322 321 320 319 320 322 323 323 324 325 325 326 326 326 329 332 335 336 334 334 334 334 334 334 334 334 333 333 333 334 334 335 335 334 332 328 326 324 322 320 317 314 311 309 307 307 308 307 307 305 303 302 301 300 298
320 321 320 321 322 322 323 323 323 322 322 322 323 324 324 325 327 327 328 328 329 332 337 339 339 338 336 336 337 336 336 337 337 337 337 338 338 339 338 338 339 340 339 336 334 331 328 324 321 318 315 313 311 310 310 309 308 307 305 304 302 301 300
320 321 322 323 323 324 324 324 323 323 324 324 325 326 327 330 330 330 330 331 335 341 344 342 340 340 340 341 341 340 341 343 342 342 343 343 343 343 342 341 342 342 342 342 341 339 335 331 326 321 318 315 313 312 311 309 308 307 306 304 303 301 300
321 322 323 324 323 324 325 325 325 326 327 328 329 331 333 334 333 333 334 338 343 347 346 344 344 345 347 347 346 347 348 349 349 350 350 350 349 348 347 346 346 345 344 343 342 341 339 337 333 328 324 321 318 315 313 311 309 308 305 304 302 300 298
322 323 324 324 325 326 327 327 328 329 331 333 334 335 337 336 336 338 341 345 349 349 347 348 350 352 351 350 351 353 354 356 356 357 357 357 357 356 355 354 352 350 348 346 344 341 339 338 335 332 329 325 321 318 315 312 310 308 306 305 303 301 300
324 325 325 327 328 329 330 330 332 334 335 337 337 338 339 339 340 344 347 350 352 351 351 354 355 354 353 353 356 358 359 1 2 3 3 3 2 2 1 360 358 356 354 351 349 346 342 339 336 332 329 325 321 318 316 315 313 312 311 310 308 307 306
327 328 329 331 332 333 333 334 336 338 338 339 340 341 341 344 347 350 351 353 354 355 356 357 357 356 357 360 2 4 5 7 8 8 9 9 8 7 6 4 1 359 356 354 351 348 346 342 338 334 330 326 323 321 320 319 318 317 316 315 314 313 312
331 332 332 334 335 335 336 339 340 340 341 342 343 344 346 351 355 355 355 356 357 359 359 359 359 1 4 5 6 8 10 12 13 15 15 13 11 10 8 6 4 1 358 355 352 349 346 342 339 335 332 329 325 322 321 320 318 316 316 316 316 316 316
332 333 333 335 337 340 342 344 344 345 346 347 348 350 354 358 359 358 358 359 360 0 1 2 3 5 7 8 9 10 13 16 17 17 15 11 9 8 6 4 3 1 358 356 354 351 347 344 341 338 335 332 328 324 322 320 318 316 315 314 315 315 316
333 335 336 338 342 346 347 347 349 350 351 352 354 358 1 1 1 1 1 1 1 4 5 5 5 6 8 10 10 11 14 16 15 13 10 7 5 4 3 2 1 360 358 356 355 353 350 347 344 342 340 336 331 326 323 320 320 319 318 317 316 315 314
337 338 339 343 348 351 351 352 354 355 357 359 2 3 4 3 3 3 3 4 6 8 7 5 4 6 9 9 9 10 12 10 8 6 4 3 2 2 1 360 359 359 359 357 356 354 351 348 348 348 346 342 336 331 325 322 320 319 318 318 317 315 314
340 341 344 349 353 354 355 357 359 0 2 5 6 5 4 4 4 4 5 6 7 7 6 5 5 7 6 5 5 6 5 4 3 1 360 359 1 1 360 359 359 359 359 358 358 356 352 351 351 352 351 347 343 340 335 329 325 321 317 316 315 314 313
343 346 350 354 355 356 358 2 3 4 6 6 5 6 6 4 3 5 6 5 4 3 2 3 4 4 1 359 0 0 359 359 358 357 357 358 0 1 360 359 359 359 358 359 359 357 355 355 355 355 354 351 350 348 345 340 335 329 324 320 317 315 312
347 352 355 355 356 359 3 5 5 5 6 6 4 4 5 3 2 3 4 2 360 359 359 358 358 357 356 355 355 355 354 354 354 355 357 358 359 359 359 359 359 358 357 358 358 357 357 358 359 358 357 354 352 350 348 346 343 337 331 326 323 320 317
350 355 357 356 357 1 4 6 6 7 7 7 5 3 3 3 1 2 2 360 356 355 354 352 351 352 351 350 351 351 352 352 353 355 358 359 358 358 358 357 357 357 356 356 357 358 359 359 359 359 358 356 352 349 348 347 344 341 337 333 331 331 329
352 356 357 357 358 2 4 6 8 9 9 8 5 2 2 2 1 359 358 355 352 351 350 346 346 347 346 346 348 350 351 352 354 356 358 359 359 357 356 355 355 355 355 354 355 357 359 359 358 358 359 358 355 351 349 347 345 342 340 337 336 338 339
Height
5909 5907 5906 5904 5902 5899 5897 5894 5893 5891 5889 5887 5886 5884 5883 5881 5879 5876 5873 5870 5868 5867 5865 5864 5864 5863 5861 5860 5858 5857 5855 5853 5852 5850 5849 5848 5848 5846 5845 5842 5840 5839 5838 5836 5834 5833 5831 5830 5829 5828 5826 5824 5822 5822 5821 5820 5819 5819 5819 5818 5816 5815 5815
5907 5906 5904 5902 5899 5897 5894 5892 5890 5888 5886 5885 5883 5882 5881 5879 5877 5874 5871 5868 5866 5865 5863 5862 5861 5860 5859 5857 5856 5854 5852 5850 5848 5847 5846 5845 5845 5843 5842 5840 5837 5836 5834 5832 5830 5829 5828 5827 5825 5823 5822 5820 5818 5817 5816 5815 5815 5814 5814 5814 5812 5811 5810
5906 5904 5902 5900 5898 5895 5893 5891 5888 5886 5884 5883 5881 5880 5879 5877 5874 5871 5869 5866 5864 5863 5861 5860 5859 5858 5856 5855 5853 5851 5849 5847 5845 5844 5843 5842 5841 5840 5838 5836 5834 5832 5830 5828 5826 5825 5824 5823 5821 5819 5817 5815 5813 5812 5811 5811 5810 5810 5809 5809 5808 5807 5806
5903 5901 5899 5897 5895 5893 5892 5889 5886 5884 5882 5881 5879 5878 5876 5874 5871 5869 5866 5864 5862 5860 5859 5858 5857 5855 5853 5852 5850 5848 5846 5844 5842 5840 5839 5839 5837 5835 5833 5832 5830 5828 5826 5824 5822 5821 5820 5819 5816 5814 5812 5810 5809 5808 5807 5806 5805 5805 5804 5804 5803 5802 5802
5900 5898 5896 5894 5892 5891 5889 5886 5884 5882 5880 5878 5876 5876 5874 5872 5869 5866 5864 5862 5860 5858 5856 5855 5854 5853 5851 5849 5847 5845 5843 5840 5838 5836 5834 5834 5833 5830 5828 5826 5825 5823 5821 5820 5818 5817 5815 5813 5810 5810 5808 5806 5804 5804 5803 5801 5800 5800 5799 5799 5798 5797 5797
5898 5895 5893 5891 5890 5888 5886 5883 5881 5879 5877 5875 5874 5873 5872 5869 5866 5864 5862 5859 5857 5855 5854 5852 5851 5850 5848 5846 5844 5841 5839 5837 5834 5832 5830 5829 5827 5825 5823 5821 5819 5818 5816 5815 5814 5813 5810 5806 5805 5805 5803 5801 5800 5799 5798 5796 5796 5795 5794 5793 5792 5791 5792
5894 5892 5891 5889 5887 5885 5883 5880 5879 5876 5873 5872 5871 5870 5868 5866 5864 5862 5859 5856 5854 5852 5851 5850 5848 5847 5845 5842 5840 5838 5836 5833 5830 5829 5827 5824 5823 5821 5818 5816 5814 5812 5811 5810 5809 5808 5805 5801 5800 5799 5797 5796 5795 5794 5792 5791 5790 5789 5788 5787 5787 5786 5787
5892 5890 5888 5886 5884 5883 5881 5878 5876 5873 5871 5869 5868 5867 5865 5863 5861 5858 5855 5853 5851 5849 5848 5847 5845 5843 5841 5839 5837 5834 5831 5829 5826 5825 5823 5821 5818 5816 5814 5811 5809 5806 5805 5804 5804 5802 5800 5797 5795 5794 5792 5790 5790 5789 5787 5786 5785 5784 5783 5782 5782 5782 5781
5890 5888 5886 5884 5882 5881 5878 5876 5873 5871 5869 5866 5865 5864 5863 5860 5857 5854 5852 5850 5848 5847 5846 5844 5843 5841 5838 5836 5833 5830 5828 5825 5822 5821 5819 5817 5814 5811 5809 5806 5804 5801 5799 5799 5798 5797 5795 5793 5790 5788 5786 5785 5784 5784 5782 5780 5779 5778 5778 5777 5777 5777 5776
5887 5885 5884 5882 5880 5878 5876 5874 5872 5869 5866 5864 5862 5861 5860 5857 5853 5851 5849 5848 5846 5845 5843 5842 5840 5838 5835 5832 5829 5827 5824 5821 5818 5817 5815 5813 5809 5807 5804 5802 5799 5797 5794 5794 5793 5792 5790 5787 5785 5783 5781 5780 5779 5778 5777 5775 5774 5773 5772 5772 5771 5771 5770
5885 5883 5881 5880 5878 5877 5874 5872 5869 5866 5863 5861 5859 5858 5856 5853 5850 5848 5846 5845 5843 5842 5840 5838 5836 5834 5831 5828 5826 5823 5820 5816 5814 5812 5811 5809 5806 5802 5800 5797 5795 5792 5790 5789 5789 5787 5785 5782 5780 5778 5777 5775 5773 5772 5771 5770 5769 5768 5767 5767 5766 5765 5764
5882 5880 5879 5877 5875 5874 5872 5869 5866 5863 5860 5858 5856 5854 5852 5850 5847 5845 5843 5841 5840 5838 5836 5834 5831 5829 5827 5824 5821 5818 5815 5811 5809 5808 5807 5805 5803 5799 5796 5793 5790 5787 5785 5784 5783 5783 5780 5776 5774 5773 5772 5770 5768 5767 5766 5765 5764 5763 5762 5761 5760 5759 5758
5880 5878 5876 5874 5872 5871 5868 5865 5862 5859 5856 5854 5852 5850 5848 5846 5844 5842 5840 5839 5836 5834 5832 5829 5826 5823 5821 5819 5816 5814 5810 5807 5805 5803 5802 5800 5798 5795 5792 5789 5786 5782 5780 5777 5776 5777 5775 5771 5768 5768 5767 5765 5763 5761 5761 5760 5759 5758 5757 5756 5755 5754 5753
5877 5875 5873 5871 5868 5866 5864 5861 5858 5855 5852 5851 5849 5847 5845 5843 5841 5839 5837 5835 5833 5830 5827 5824 5821 5818 5815 5813 5812 5810 5807 5803 5801 5799 5797 5795 5792 5790 5787 5784 5781 5778 5775 5773 5770 5770 5770 5767 5764 5763 5762 5760 5758 5757 5756 5755 5754 5753 5753 5752 5751 5750 5749
5874 5872 5870 5867 5865 5863 5860 5857 5854 5851 5849 5848 5846 5844 5843 5841 5838 5836 5834 5831 5828 5825 5822 5819 5816 5814 5812 5810 5808 5806 5803 5800 5797 5794 5792 5790 5787 5785 5782 5780 5777 5774 5772 5769 5767 5765 5765 5763 5761 5759 5758 5756 5755 5753 5752 5751 5750 5749 5749 5748 5746 5746 5745
5871 5869 5867 5865 5862 5860 5858 5855 5853 5850 5848 5846 5844 5842 5840 5838 5835 5832 5830 5827 5824 5820 5818 5815 5813 5811 5809 5807 5805 5802 5799 5796 5793 5790 5788 5785 5783 5780 5778 5775 5773 5771 5768 5766 5764 5761 5760 5759 5758 5756 5754 5753 5752 5750 5749 5748 5747 5746 5745 5744 5743 5742 5742
5869 5866 5864 5862 5860 5858 5856 5854 5852 5849 5847 5844 5842 5840 5837 5835 5832 5829 5826 5823 5820 5817 5815 5813 5810 5807 5805 5803 5801 5798 5796 5792 5789 5786 5784 5781 5779 5777 5774 5772 5770 5767 5765 5763 5761 5759 5757 5756 5754 5753 5751 5750 5749 5747 5746 5745 5744 5743 5742 5741 5740 5739 5738
5866 5864 5862 5860 5858 5856 5854 5852 5849 5847 5845 5843 5840 5837 5834 5831 5828 5826 5823 5820 5817 5815 5813 5810 5807 5804 5801 5799 5797 5794 5792 5789 5786 5783 5781 5778 5776 5773 5771 5769 5767 5764 5762 5760 5758 5756 5754 5753 5751 5750 5748 5747 5746 5745 5744 5742 5741 5740 5739 5738 5737 5736 5735
5864 5862 5859 5857 5855 5853 5851 5848 5846 5845 5843 5840 5838 5835 5832 5829 5826 5823 5820 5817 5815 5812 5809 5806 5804 5801 5798 5796 5793 5791 5788 5786 5783 5780 5777 5775 5772 5770 5768 5766 5764 5762 5759 5757 5755 5753 5752 5750 5749 5747 5745 5744 5743 5742 5741 5739 5738 5737 5736 5735 5734 5733 5732
5861 5859 5857 5855 5853 5850 5848 5846 5844 5843 5840 5838 5835 5832 5829 5826 5823 5820 5817 5814 5812 5809 5806 5804 5801 5798 5795 5792 5790 5787 5785 5782 5780 5777 5775 5772 5770 5768 5765 5763 5761 5759 5757 5755 5753 5751 5749 5747 5746 5745 5743 5742 5740 5739 5738 5737 5736 5734 5733 5732 5731 5730 5729
5859 5857 5854 5852 5850 5848 5847 5845 5843 5841 5838 5835 5832 5829 5826 5823 5820 5817 5814 5811 5808 5806 5803 5801 5798 5795 5792 5789 5787 5785 5782 5780 5777 5775 5772 5770 5767 5765 5763 5761 5759 5757 5755 5753 5751 5749 5747 5745 5744 5742 5741 5739 5738 5737 5735 5734 5733 5732 5730 5729 5728 5727 5726
5856 5854 5852 5850 5848 5846 5845 5843 5840 5838 5835 5832 5829 5826 5823 5820 5817 5814 5811 5808 5806 5803 5801 5798 5795 5792 5790 5787 5785 5783 5780 5778 5775 5773 5771 5768 5766 5763 5761 5759 5757 5755 5753 5751 5749 5747 5745 5743 5742 5740 5739 5737 5736 5735 5733 5732 5731 5729 5728 5727 5726 5725 5724
5854 5852 5850 5848 5846 5844 5842 5840 5837 5834 5832 5829 5826 5823 5820 5817 5814 5811 5808 5805 5803 5800 5798 5795 5792 5790 5788 5786 5783 5781 5778 5776 5774 5771 5769 5766 5764 5761 5759 5757 5755 5753 5751 5748 5747 5745 5743 5741 5740 5738 5737 5735 5734 5733 5731 5730 5728 5727 5726 5725 5723 5722 5721
5852 5850 5848 5846 5844 5842 5839 5837 5834 5832 5829 5826 5823 5820 5817 5814 5811 5808 5805 5803 5800 5798 5795 5793 5790 5789 5786 5784 5782 5779 5777 5774 5772 5769 5767 5765 5762 5760 5757 5755 5753 5751 5749 5747 5745 5743 5741 5740 5738 5736 5735 5734 5732 5731 5729 5728 5726 5725 5723 5722 5721 5720 5719
5849 5847 5845 5843 5841 5839 5836 5834 5831 5829 5826 5823 5820 5817 5814 5811 5808 5805 5803 5800 5797 5795 5793 5791 5789 5787 5785 5782 5780 5777 5775 5773 5770 5768 5765 5763 5761 5758 5756 5754 5752 5749 5747 5745 5743 5742 5740 5738 5736 5735 5733 5732 5730 5729 5727 5726 5724 5723 5721 5720 5718 5717 5716
5847 5845 5843 5841 5839 5836 5834 5831 5828 5826 5823 5820 5817 5813 5810 5808 5805 5803 5800 5797 5795 5794 5792 5790 5788 5786 5783 5781 5779 5776 5774 5771 5769 5766 5764 5762 5760 5757 5755 5753 5750 5748 5746 5744 5742 5740 5738 5737 5735 5733 5732 5730 5728 5727 5725 5723 5722 5720 5719 5717 5716 5715 5714
5846 5843 5841 5839 5836 5833 5831 5828 5825 5823 5819 5816 5813 5810 5807 5805 5802 5800 5797 5796 5794 5793 5791 5789 5787 5784 5782 5780 5778 5776 5773 5771 5768 5766 5764 5761 5759 5757 5754 5752 5750 5748 5746 5744 5741 5739 5737 5735 5733 5732 5730 5728 5726 5724 5723 5721 5719 5718 5716 5715 5713 5712 5711
5844 5841 5838 5836 5833 5830 5828 5825 5822 5819 5816 5813 5810 5807 5805 5802 5800 5798 5796 5795 5794 5792 5790 5788 5786 5784 5782 5779 5777 5775 5773 5770 5768 5766 5763 5761 5759 5756 5754 5752 5750 5747 5745 5743 5740 5738 5736 5734 5732 5730 5728 5726 5724 5722 5720 5719 5717 5715 5714 5712 5711 5709 5708
5841 5838 5835 5832 5830 5827 5825 5822 5819 5816 5813 5810 5807 5805 5803 5801 5799 5797 5796 5795 5793 5791 5789 5787 5785 5783 5781 5779 5776 5774 5772 5770 5768 5765 5763 5761 5759 5756 5754 5752 5749 5747 5744 5742 5740 5737 5735 5733 5731 5728 5726 5724 5722 5720 5718 5717 5715 5714 5712 5710 5709 5707 5706
5838 5835 5833 5831 5828 5826 5822 5819 5816 5813 5811 5808 5805 5803 5801 5800 5798 5797 5796 5794 5792 5790 5788 5787 5785 5783 5781 5778 5776 5774 5772 5770 5767 5765 5763 5761 5759 5756 5754 5751 5749 5746 5744 5742 5739 5737 5734 5732 5730 5727 5725 5723 5721 5719 5717 5716 5714 5712 5711 5709 5707 5706 5704
5836 5834 5832 5830 5827 5824 5821 5817 5814 5811 5808 5805 5803 5802 5800 5799 5798 5797 5795 5793 5791 5790 5788 5787 5785 5782 5780 5778 5776 5773 5772 5770 5767 5765 5763 5761 5759 5756 5753 5751 5748 5746 5744 5741 5739 5736 5734 5731 5729 5727 5724 5722 5720 5718 5716 5714 5713 5711 5709 5708 5706 5704 5703
5835 5832 5830 5827 5825 5822 5818 5815 5812 5809 5807 5805 5803 5801 5800 5799 5798 5796 5794 5793 5791 5789 5788 5786 5784 5782 5779 5777 5775 5774 5772 5770 5768 5766 5763 5761 5758 5756 5753 5751 5748 5746 5743 5741 5738 5736 5733 5731 5728 5726 5724 5721 5719 5717 5715 5713 5711 5709 5707 5706 5704 5702 5700
5832 5830 5827 5825 5822 5819 5816 5814 5811 5808 5806 5804 5803 5801 5800 5799 5798 5796 5794 5793 5791 5789 5788 5786 5783 5781 5779 5777 5776 5774 5772 5770 5767 5765 5763 5761 5758 5755 5753 5750 5748 5746 5743 5741 5738 5736 5733 5730 5728 5725 5723 5720 5718 5716 5714 5712 5710 5708 5706 5704 5702 5700 5698
5829 5826 5824 5821 5819 5816 5814 5812 5809 5807 5806 5804 5803 5801 5800 5799 5797 5796 5794 5793 5791 5789 5788 5785 5783 5781 5779 5778 5776 5774 5772 5770 5767 5765 5763 5761 5758 5755 5753 5750 5748 5745 5743 5740 5738 5735 5732 5730 5727 5725 5722 5720 5717 5715 5713 5711 5709 5707 5704 5702 5700 5698 5696
5826 5823 5820 5818 5816 5814 5811 5809 5807 5806 5805 5804 5802 5801 5800 5799 5797 5796 5794 5793 5791 5789 5787 5785 5783 5781 5780 5778 5776 5774 5772 5770 5768 5766 5763 5760 5758 5755 5753 5750 5747 5745 5742 5740 5737 5735 5732 5729 5727 5724 5722 5719 5717 5715 5712 5710 5707 5705 5703 5700 5698 5697 5695
5824 5821 5818 5816 5814 5812 5810 5808 5807 5806 5805 5803 5802 5801 5800 5799 5797 5795 5794 5792 5790 5789 5787 5785 5783 5782 5780 5778 5776 5774 5772 5770 5768 5765 5763 5760 5757 5755 5752 5750 5747 5744 5742 5739 5737 5734 5731 5729 5726 5723 5721 5718 5716 5714 5712 5709 5706 5704 5701 5699 5697 5695 5693
5822 5819 5817 5815 5813 5812 5810 5809 5808 5806 5805 5803 5802 5800 5799 5798 5796 5795 5793 5792 5790 5788 5786 5785 5783 5781 5779 5778 5776 5774 5772 5770 5767 5765 5762 5759 5756 5754 5751 5749 5747 5744 5741 5738 5736 5734 5731 5728 5726 5723 5721 5718 5715 5713 5710 5708 5705 5702 5700 5697 5695 5693 5692
5821 5819 5817 5816 5814 5813 5811 5810 5808 5806 5805 5803 5801 5800 5799 5797 5796 5794 5793 5791 5790 5788 5786 5784 5782 5781 5779 5777 5775 5773 5771 5769 5767 5764 5761 5759 5756 5753 5751 5748 5746 5743 5741 5738 5735 5733 5731 5728 5726 5723 5720 5718 5715 5712 5709 5706 5704 5701 5698 5696 5694 5692 5690